Location: Unspecified
(0.0000°N, 0.0000°E)
Time: 15:41:00
(UTC+02:00)

Meteor PRIRODA - Visible Passes

Search period start: 27 April 2015 00:00
Search period end: 07 May 2015 00:00
Orbit: 504 x 524 km, 97.3° (Epoch: 26 April)

Date Brightness Start Highest point End Pass type
(mag) Time Alt. Az. Time Alt. Az. Time Alt. Az.
27 Apr 6.2 05:47:23 10° ENE 05:49:55 18° E 05:50:26 18° ESE visible
27 Apr 5.6 07:22:10 10° NW 07:23:52 12° W 07:25:20 10° WSW visible
28 Apr 6.9 05:34:06 10° E 05:34:32 10° E 05:34:56 10° ESE visible
28 Apr 5.0 07:05:35 10° NNW 07:08:30 21° W 07:09:54 17° WSW visible
29 Apr 4.2 06:49:40 10° N 06:53:08 37° W 06:54:24 28° WSW visible
30 Apr 3.5 06:34:05 10° N 06:37:47 69° W 06:38:53 42° SSW visible
01 May 4.0 06:18:45 10° NNE 06:22:25 62° E 06:23:21 45° SSE visible
02 May 5.2 06:03:42 10° NE 06:07:03 33° E 06:07:49 30° SE visible
03 May 6.1 05:49:00 10° NE 05:51:39 19° E 05:52:16 19° ESE visible
03 May 5.7 07:24:16 10° WNW 07:25:37 11° W 07:26:40 10° W visible
04 May 6.8 05:35:15 10° E 05:36:13 11° E 05:36:42 11° ESE visible
04 May 5.1 07:07:23 10° NNW 07:10:10 20° W 07:11:40 15° WSW visible
05 May 4.3 06:51:21 10° NNW 06:54:45 34° W 06:56:06 25° WSW visible
06 May 3.5 06:35:41 10° N 06:39:20 64° W 06:40:31 39° SW visible
